Location: Ertinghausen
(51.6624°N, 9.7874°E)
Time: 12:37:19
(UTC+00:00)

CZ-2C R/B - Pass Details

Date: 17 August 2024
Orbit: 703 x 903 km, 98.2° (Epoch: 14 September)

Event Time Altitude Azimuth Distance (km) Brightness Sun altitude
Rises 03:15:13 0° 4° (N) 3,216 6.8 -8.3°
Reaches altitude 10° 03:18:10 10° 346° (NNW) 2,321 5.8 -7.9°
Maximum altitude 03:21:28 18° 305° (NW) 1,878 4.8 -7.4°
Drops below altitude 10° 03:24:52 10° 265° (W) 2,397 5.0 -7.0°
Enters shadow 03:25:54 - 257° (WSW) 2,690 5.2 -6.9°
